TimeMST,TemperatureF,Dew PointF,Humidity,Sea Level PressureIn,VisibilityMPH,Wind Direction,Wind SpeedMPH,Gust SpeedMPH,PrecipitationIn,Events,Conditions,WindDirDegrees,DateUTC
12:53 AM,39.9,24.1,53,29.63,10.0,SW,12.7,-,N/A,,Clear,230,2011-12-31 07:53:00
1:53 AM,39.9,23.0,51,29.60,10.0,SW,13.8,-,N/A,,Clear,220,2011-12-31 08:53:00
3:53 AM,46.0,19.9,35,29.50,10.0,SSW,17.3,26.5,N/A,,Clear,210,2011-12-31 10:53:00
4:53 AM,46.9,19.9,34,29.48,10.0,SW,25.3,32.2,N/A,,Clear,220,2011-12-31 11:53:00
6:53 AM,35.1,21.9,59,29.63,10.0,NW,19.6,-,N/A,,Clear,320,2011-12-31 13:53:00
7:03 AM,37.4,23.0,56,29.61,10.0,NW,18.4,-,N/A,,Clear,320,2011-12-31 14:03:00
7:53 AM,41.0,23.0,49,29.64,10.0,NW,35.7,47.2,N/A,,Clear,320,2011-12-31 14:53:00
8:53 AM,41.0,14.0,33,29.71,10.0,NW,32.2,48.3,N/A,,Partly Cloudy,310,2011-12-31 15:53:00
10:08 AM,42.8,6.8,23,29.72,3.0,WNW,47.2,61.0,N/A,,Haze,300,2011-12-31 17:08:00
10:53 AM,45.0,6.1,20,29.71,7.0,WNW,43.7,59.8,N/A,,Clear,300,2011-12-31 17:53:00
11:01 AM,44.6,6.8,21,29.74,4.0,WNW,52.9,64.4,N/A,,Haze,300,2011-12-31 18:01:00
11:53 AM,37.0,17.1,44,29.80,5.0,WNW,51.8,69.0,0.00,Rain,Light Rain,290,2011-12-31 18:53:00
12:05 PM,33.8,23.0,65,29.79,1.8,WNW,46.0,65.6,0.00,Snow,Light Snow,300,2011-12-31 19:05:00
12:16 PM,35.6,21.2,56,29.79,3.0,NW,51.8,67.9,0.00,Snow,Light Snow,310,2011-12-31 19:16:00
12:45 PM,33.8,28.4,81,29.84,1.5,NW,54.1,67.9,0.00,Snow,Light Snow,320,2011-12-31 19:45:00
12:47 PM,33.8,28.4,81,29.84,1.2,NW,48.3,67.9,0.00,Snow,Light Snow,320,2011-12-31 19:47:00
12:50 PM,32.0,28.4,87,29.86,0.8,NW,49.5,71.3,0.00,Snow,Light Snow,320,2011-12-31 19:50:00
12:53 PM,32.0,28.0,85,29.90,0.8,NNW,52.9,72.5,0.00,Snow,Light Snow,330,2011-12-31 19:53:00
1:02 PM,30.2,26.6,86,29.88,0.2,NW,54.1,74.8,0.00,Fog-Snow,Heavy Snow,320,2011-12-31 20:02:00
1:34 PM,30.2,26.6,86,29.94,1.0,NNW,42.6,59.8,0.01,Snow,Light Snow,330,2011-12-31 20:34:00
1:36 PM,30.2,26.6,86,29.95,1.5,NNW,44.9,62.1,0.01,Snow,Light Snow,330,2011-12-31 20:36:00
1:39 PM,30.2,26.6,86,29.95,4.0,NNW,51.8,62.1,0.01,Snow,Light Snow,330,2011-12-31 20:39:00
1:53 PM,30.9,26.1,82,30.02,10.0,NNW,38.0,57.5,0.01,,Overcast,330,2011-12-31 20:53:00
2:31 PM,32.0,24.8,75,30.03,10.0,NNW,34.5,42.6,N/A,,Overcast,330,2011-12-31 21:31:00
2:53 PM,32.0,24.1,73,30.09,10.0,NNW,29.9,40.3,N/A,,Overcast,330,2011-12-31 21:53:00
4:53 PM,28.9,19.0,67,30.19,10.0,NNW,21.9,28.8,N/A,,Clear,330,2011-12-31 23:53:00
5:53 PM,28.0,17.1,63,30.26,10.0,NNW,20.7,-,N/A,,Clear,330,2012-01-01 00:53:00
6:53 PM,27.0,15.1,61,30.31,10.0,NNW,19.6,-,N/A,,Clear,330,2012-01-01 01:53:00
7:53 PM,23.0,14.0,68,30.35,10.0,WNW,10.4,-,N/A,,Clear,300,2012-01-01 02:53:00
8:53 PM,24.1,15.1,69,30.37,10.0,WNW,11.5,-,N/A,,Clear,300,2012-01-01 03:53:00
11:53 PM,18.0,10.0,71,30.43,10.0,North,6.9,-,N/A,,Clear,10,2012-01-01 06:53:00